Weather History for Opa Locka, FL

Change the Weather History Date:

Friday, January 25, 2013

  Actual Average Record
Temperature  
Mean Temperature 68 °F -  
Max Temperature 78 °F 76 °F 85 °F (1987)
Min Temperature 59 °F 58 °F 40 °F (1960)
Cooling Degree Days 4    
Growing Degree Days 18 (Base 50)    
Moisture  
Dew Point 53 °F    
Average Humidity 62    
Maximum Humidity 81    
Minimum Humidity 39    
Precipitation  
Precipitation 0.00 in - - ()
Sea Level Pressure  
Sea Level Pressure 30.24 in    
Wind  
Wind Speed 6 mph (NE)    
Max Wind Speed 13 mph    
Max Gust Speed -    
Visibility 10 miles    
Events      
Averages and records for this station are not official NWS values.
T = Trace of Precipitation, MM = Missing Value Source: NWS Daily Summary

Daily Weather History Graph

Daily Weather History Graph

Search for Another Location

Airport:

Trip Planner

Search our weather history database for the weather conditions in past years. The results will help you decide how hot, cold, wet, or windy it might be!

Date:

Astronomy

Jan. 25, 2013 Rise Set
Actual Time 7:07 AM EST 5:59 PM EST
Civil Twilight 6:43 AM EST 6:23 PM EST
Nautical Twilight 6:15 AM EST 6:51 PM EST
Astronomical Twilight 5:48 AM EST 7:19 PM EST
Moon 4:55 PM EST (1/25) 5:45 AM EST (1/25)
Length of Visible Light 11h 40m
Length of Day
10h 51m
Waxing Gibbous, 98% of the Moon is Illuminated
Jan 25
Waxing Gibbous
Jan 26
Full
Feb 3
Last Quarter
Feb 10
New
Feb 17
First Quarter

Hourly Weather History & Observations

Time (EST) Temp. Dew Point Humidity Pressure Visibility Wind Dir Wind Speed Gust Speed Precip Events Conditions
12:53 AM 61.0 °F 52.0 °F 72% 30.27 in 10.0 mi North 5.8 mph - N/A   Clear
1:53 AM 60.1 °F 52.0 °F 75% 30.25 in 10.0 mi North 6.9 mph - N/A   Clear
2:53 AM 61.0 °F 52.0 °F 72% 30.24 in 10.0 mi North 6.9 mph - N/A   Clear
3:53 AM 61.0 °F 52.0 °F 72% 30.24 in 10.0 mi North 5.8 mph - N/A   Clear
4:53 AM 60.1 °F 52.0 °F 75% 30.24 in 10.0 mi North 5.8 mph - N/A   Clear
5:53 AM 60.1 °F 51.1 °F 72% 30.25 in 10.0 mi North 8.1 mph - N/A   Clear
6:53 AM 59.0 °F 51.1 °F 75% 30.26 in 10.0 mi North 5.8 mph - N/A   Clear
7:53 AM 61.0 °F 51.1 °F 70% 30.27 in 10.0 mi North 5.8 mph - N/A   Partly Cloudy
8:53 AM 64.0 °F 51.1 °F 63% 30.28 in 10.0 mi North 6.9 mph - N/A   Partly Cloudy
9:53 AM 71.1 °F 51.1 °F 49% 30.30 in 10.0 mi North 10.4 mph - N/A   Clear
10:53 AM 75.0 °F 52.0 °F 44% 30.30 in 10.0 mi NNE 6.9 mph - N/A   Scattered Clouds
11:53 AM 77.0 °F 54.0 °F 45% 30.27 in 10.0 mi ESE 9.2 mph - N/A   Partly Cloudy
12:53 PM 78.1 °F 51.1 °F 39% 30.25 in 10.0 mi East 12.7 mph - N/A   Scattered Clouds
1:53 PM 77.0 °F 51.1 °F 40% 30.22 in 10.0 mi East 6.9 mph - N/A   Partly Cloudy
2:53 PM 75.9 °F 51.1 °F 42% 30.20 in 10.0 mi East 8.1 mph - N/A   Clear
3:53 PM 75.9 °F 52.0 °F 43% 30.19 in 10.0 mi ENE 6.9 mph - N/A   Clear
4:53 PM 73.9 °F 53.1 °F 48% 30.20 in 10.0 mi Variable 4.6 mph - N/A   Clear
5:53 PM 71.1 °F 55.0 °F 57% 30.21 in 10.0 mi East 4.6 mph - N/A   Clear
6:53 PM 69.1 °F 55.9 °F 63% 30.22 in 10.0 mi East 3.5 mph - N/A   Clear
7:53 PM 66.0 °F 55.9 °F 70% 30.22 in 10.0 mi Calm Calm - N/A   Clear
8:53 PM 64.9 °F 55.9 °F 73% 30.23 in 10.0 mi Calm Calm - N/A   Partly Cloudy
9:53 PM 64.9 °F 57.0 °F 75% 30.23 in 10.0 mi Calm Calm - N/A   Clear
10:53 PM 63.0 °F 57.0 °F 81% 30.23 in 10.0 mi Calm Calm - N/A   Clear
11:53 PM 63.0 °F 57.0 °F 81% 30.23 in 10.0 mi Calm Calm - N/A   Partly Cloudy